Location: *
(46.0770°N, 1.6444°E)
Time: 14:12:58
(UTC+00:00)

NOSS 3-4 (C) - Pass Details

Date: 16 September 2019
Orbit: 913 x 1299 km, 63.4° (Epoch: 21 September)

Event Time Altitude Azimuth Distance (km) Brightness Sun altitude
Rises 19:27:42 0° 321° (NW) 3,814 7.7 -15.0°
Reaches altitude 10° 19:30:15 10° 324° (NW) 2,910 6.9 -15.5°
Maximum altitude 19:37:13 72° 48° (NE) 1,206 3.9 -16.6°
Enters shadow 19:42:08 24° 129° (SE) 2,264 4.8 -17.4°
